{"data":{"norad_id":59128,"epoch":"2026-09-22T18:42:56.545632Z","epoch_age_seconds":60953,"freshness":"FRESH","line1":"1 59128U 24043AG  26265.77982113  .00004854  00000+0  15407-3 0  9997","line2":"2 59128  97.5778  46.7021 0008230 251.0430 108.9920 15.33140402142063","mean_motion":15.33140402,"eccentricity":0.000823,"inclination_deg":97.5778,"raan_deg":46.7021,"arg_perigee_deg":251.043,"mean_anomaly_deg":108.992,"bstar":0.00015407,"rev_number":14206,"period_min":93.924861553547,"perigee_km":460.81649909802,"apogee_km":472.08268863152,"semimajor_km":6844.5865938648,"source":"CELESTRAK","updated_at":"2026-09-23T09:00:19.179244Z"}}